Temperature
10 12 12 12 12 12 12 12 12 12 11 10 11 12 12 11 10 10 10 10 9 9 9 9 9 9 9 10 10 10 9 9 9 9 9 9 9 9 9 9 9 9 9 9
11 11 11 10 10 10 11 11 12 11 10 10 11 11 12 11 10 10 10 9 9 8 8 8 8 8 9 9 9 9 9 9 9 9 9 9 9 9 9 8 8 8 8 8
11 10 9 9 9 10 10 11 11 10 10 9 10 12 12 11 10 9 8 8 8 8 8 7 8 8 8 8 8 9 9 9 9 9 9 9 8 8 8 8 8 8 8 8
10 9 9 9 9 9 10 10 9 9 10 11 10 11 13 11 11 10 9 8 7 7 7 7 7 8 8 8 8 8 8 8 8 8 8 8 8 8 8 8 8 8 8 8
9 8 8 9 9 9 9 8 8 9 10 10 10 10 12 11 10 10 9 7 6 6 6 6 7 7 7 7 7 7 7 8 8 8 8 8 8 8 8 8 7 7 7 7
8 7 7 8 7 8 8 8 8 9 9 9 10 10 11 11 9 9 8 7 6 5 5 5 6 6 7 7 7 7 7 7 7 7 7 7 7 7 7 7 7 7 7 7
8 8 7 7 7 7 8 9 9 9 9 10 9 9 10 9 8 8 7 6 5 5 5 5 5 6 6 6 7 7 7 7 7 7 7 7 7 7 7 7 7 7 7 7
8 8 7 6 7 7 7 8 9 9 10 10 8 8 9 8 6 6 5 5 5 4 4 4 5 5 5 6 6 6 6 6 6 6 7 6 6 6 6 7 7 7 6 6
7 7 6 6 6 7 7 7 7 8 8 8 9 9 8 7 6 6 5 5 4 4 4 4 4 5 5 5 5 6 6 6 6 6 6 6 6 6 6 6 6 6 6 6
6 6 6 5 5 6 6 7 6 7 7 8 9 9 8 7 6 6 5 5 4 4 4 4 4 4 5 5 5 5 5 5 5 5 5 6 6 6 6 6 6 6 6 6
5 5 6 5 5 6 5 5 6 7 7 7 8 9 7 6 6 5 5 4 4 3 3 3 4 4 4 4 5 5 5 5 5 5 5 5 5 5 5 5 5 5 5 5
4 5 5 6 5 5 5 6 6 6 6 6 7 7 6 5 5 5 4 4 3 3 2 2 3 3 3 4 4 4 4 4 4 4 4 5 5 5 5 5 5 5 5 5
4 4 4 5 5 4 4 4 4 5 5 5 5 7 6 5 4 4 3 3 2 2 2 2 2 2 2 2 3 3 4 4 4 4 4 4 4 4 4 4 4 4 4 4
4 4 4 5 5 4 4 4 4 4 4 5 5 6 6 5 4 4 3 2 2 1 1 1 1 1 1 1 2 3 3 3 3 3 3 3 4 4 4 4 4 4 4 4
3 3 3 4 4 4 3 3 3 3 4 4 5 5 5 4 4 3 2 2 1 1 0 0 0 0 1 1 1 2 2 3 3 3 3 3 3 3 3 3 3 3 3 3
2 2 2 2 3 3 2 3 3 3 3 3 4 4 4 3 3 2 1 1 0 0 -0 -0 -0 -0 -0 -0 0 1 1 2 2 2 2 2 2 2 2 3 3 3 3 3
1 1 1 2 2 2 2 2 2 2 2 2 2 3 3 2 2 1 0 0 -0 -1 -1 -1 -1 -1 -1 -1 -0 0 1 1 1 1 1 2 2 2 2 2 2 2 2 3
0 0 1 1 1 1 3 2 2 1 1 1 1 1 1 1 -0 -0 -0 -1 -1 -1 -2 -2 -2 -2 -1 -1 -1 -0 0 0 1 1 1 1 1 1 1 1 1 2 2 2
-0 -0 0 0 1 2 2 1 0 0 0 0 0 0 -0 -1 -1 -0 -1 -2 -2 -2 -2 -2 -2 -2 -2 -1 -1 -1 -0 -0 -0 -0 -0 0 0 0 0 1 1 1 1 1
-1 -1 -0 -0 -0 1 1 -0 -1 0 0 -0 -1 -1 -1 -2 -0 0 -2 -3 -3 -3 -3 -3 -3 -3 -2 -2 -1 -1 -1 -1 -1 -1 -1 -1 -0 -0 -0 0 0 0 0 1
-1 -1 -1 -1 -0 1 0 -1 -1 -0 -0 -2 -2 -2 -2 -2 -2 -3 -3 -3 -3 -3 -3 -3 -3 -3 -3 -2 -2 -2 -2 -1 -1 -1 -1 -1 -1 -1 -1 -1 -0 -0 -0 -0
-1 -1 -1 -1 -1 -0 -1 -1 -1 -1 -2 -3 -3 -3 -4 -4 -4 -4 -4 -4 -4 -4 -4 -4 -4 -3 -3 -3 -3 -2 -2 -2 -2 -2 -2 -1 -1 -1 -1 -1 -1 -1 -1 -1
-1 -1 -1 -1 -0 -1 -2 -2 -3 -3 -3 -4 -4 -4 -5 -5 -5 -5 -5 -5 -5 -5 -5 -4 -4 -4 -4 -3 -3 -3 -3 -3 -2 -2 -2 -2 -2 -2 -1 -1 -1 -1 -1 -1
-2 -3 -2 -2 -2 -2 -3 -3 -4 -4 -4 -5 -5 -5 -5 -6 -6 -6 -6 -5 -5 -5 -5 -5 -5 -5 -4 -4 -4 -4 -3 -3 -3 -3 -3 -2 -2 -2 -2 -2 -2 -2 -2 -2
-2 -3 -3 -3 -2 -3 -3 -4 -4 -5 -5 -5 -6 -6 -6 -6 -6 -6 -6 -6 -6 -6 -6 -6 -5 -5 -5 -5 -5 -4 -4 -4 -4 -3 -3 -3 -3 -3 -3 -3 -2 -2 -2 -2
-3 -4 -3 -3 -3 -4 -4 -5 -5 -6 -6 -6 -6 -6 -7 -7 -7 -7 -7 -7 -7 -6 -6 -6 -6 -6 -5 -5 -5 -5 -5 -4 -4 -4 -4 -4 -4 -3 -3 -3 -3 -3 -3 -2
Wind_Speed
1 2 3 3 4 4 3 6 8 6 3 5 10 13 11 7 7 8 7 6 6 7 6 4 5 5 5 5 5 6 6 6 6 5 4 4 4 4 3 3 4 4 4 4
2 3 3 2 2 4 5 8 9 6 3 6 10 13 11 7 6 6 6 6 6 6 4 3 3 4 5 6 6 6 6 7 7 5 5 3 4 3 3 3 4 4 4 4
3 1 0 2 2 5 7 8 8 8 7 5 8 9 7 3 2 3 4 5 5 5 5 4 4 4 5 5 6 6 6 6 6 6 4 3 3 3 3 4 3 4 4 4
3 2 1 3 4 5 7 5 7 8 7 5 4 7 6 3 3 3 4 4 5 5 5 4 3 4 5 5 5 5 5 6 6 6 5 6 5 5 4 4 4 4 4 4
2 1 2 4 4 5 5 4 6 8 9 8 7 7 6 2 3 4 5 5 6 5 5 4 3 4 4 4 4 5 5 5 5 5 6 6 5 4 3 3 4 4 4 4
2 1 2 3 2 2 3 3 4 5 6 8 7 8 6 2 2 4 5 6 7 6 4 4 3 2 2 2 2 3 5 5 5 5 5 6 6 5 5 4 4 4 4 3
2 1 1 1 1 1 2 3 3 4 6 7 2 6 6 1 2 4 6 7 7 6 5 4 3 2 2 1 2 3 4 4 4 5 5 6 5 5 6 5 5 4 4 4
4 3 1 1 2 2 3 4 5 5 6 5 4 7 3 2 3 4 6 6 6 6 6 5 4 2 2 2 2 3 3 4 4 5 5 5 5 4 4 5 5 5 4 4
3 4 2 3 3 3 2 4 3 4 6 8 7 5 4 1 4 6 7 7 7 7 6 5 4 3 3 3 3 3 3 4 4 4 4 4 5 5 4 5 5 4 4 3
3 6 3 2 2 1 3 2 2 4 5 8 8 7 5 2 3 5 6 7 8 7 7 6 5 4 3 3 2 3 3 4 4 4 4 3 4 4 4 4 5 4 4 4
3 5 4 3 4 5 3 3 4 5 6 6 8 5 1 2 2 3 5 6 7 7 6 5 5 5 4 3 2 2 2 3 3 3 3 4 3 3 4 4 4 4 4 4
2 3 6 6 3 3 5 5 6 6 7 7 8 6 1 1 2 4 6 7 7 7 6 6 6 6 5 5 3 2 2 3 3 3 3 3 3 3 4 4 4 4 4 4
2 3 5 4 2 2 3 4 5 5 6 8 9 7 1 2 5 7 8 8 8 7 7 7 6 6 6 6 5 4 2 3 3 3 3 3 3 3 4 4 4 4 4 4
4 5 8 10 8 5 8 8 8 8 8 11 14 14 10 9 9 10 10 9 8 7 7 7 6 6 7 6 6 5 4 3 2 3 3 3 3 4 4 3 3 3 4 4
2 7 10 14 13 11 14 14 13 14 15 13 15 16 14 12 11 11 10 9 8 7 7 7 7 7 8 7 7 6 5 4 3 3 3 4 3 3 3 3 3 3 4 4
3 6 7 11 11 12 15 14 13 13 14 17 18 17 11 11 10 9 8 8 8 8 8 8 9 9 8 8 8 7 6 5 3 3 4 3 3 3 3 3 3 3 3 4
4 4 5 8 8 10 10 9 10 9 9 9 13 12 10 10 10 10 9 8 8 8 9 10 10 9 8 8 8 7 7 5 4 3 3 3 3 3 3 3 3 4 4 4
6 6 5 6 6 8 3 2 3 7 7 7 8 9 9 11 11 9 8 8 8 10 10 10 10 9 9 8 7 7 5 4 4 4 3 3 3 4 3 4 4 4 4 4
9 6 4 4 7 10 5 2 3 5 7 4 7 10 11 10 10 7 6 8 10 11 10 10 9 9 8 8 8 7 5 4 4 4 4 4 4 4 4 5 5 4 4 4
4 6 6 5 6 7 3 4 5 4 5 4 7 10 11 9 8 8 10 11 12 11 9 9 9 8 8 7 7 6 5 5 5 5 5 5 4 5 5 5 5 4 4 5
2 4 8 9 8 7 3 5 3 3 5 8 9 10 10 9 10 12 13 13 12 11 10 9 8 8 7 7 6 6 6 6 6 6 5 5 5 5 5 5 4 4 4 4
4 4 5 6 7 7 3 3 3 6 8 9 10 10 11 11 12 12 13 13 12 11 11 9 8 8 7 6 6 6 7 6 6 6 5 5 5 4 4 4 4 4 4 5
6 5 4 5 6 5 4 5 6 6 8 9 9 11 11 12 13 13 13 12 12 11 10 9 9 8 7 6 6 7 7 6 6 6 5 5 4 4 4 4 4 4 4 4
4 4 5 6 8 7 7 6 6 8 9 10 10 11 11 12 13 13 12 11 11 10 10 9 8 8 8 7 7 7 7 6 6 6 5 5 4 4 4 4 4 4 4 4
5 4 5 8 8 7 7 8 9 10 10 10 11 11 11 12 13 12 12 11 10 10 9 8 8 8 8 8 7 7 6 5 6 5 5 4 4 3 3 3 4 5 5 6
4 5 5 7 6 7 10 9 9 10 11 11 12 12 11 11 12 12 11 10 10 10 9 8 8 8 8 8 7 7 5 5 5 4 4 4 3 3 3 3 3 3 4 5
Wind_Direction
27 206 223 233 237 272 268 261 272 276 284 273 266 274 281 281 271 270 270 270 269 267 267 256 236 221 211 203 201 197 193 186 180 180 184 189 195 191 191 191 191 194 200 198
206 236 263 260 223 236 253 268 277 281 281 280 280 278 278 272 262 266 270 271 273 276 271 260 238 215 208 204 201 198 199 193 190 193 189 190 186 194 196 195 194 198 199 195
235 335 287 204 224 249 258 262 276 287 306 263 286 274 251 250 249 279 282 282 284 279 275 267 244 226 215 208 205 202 201 198 195 190 178 163 167 177 189 194 197 199 200 195
259 284 237 235 251 259 267 269 274 278 281 272 275 282 268 265 281 314 321 321 307 298 287 279 260 240 226 216 208 205 203 200 195 187 190 188 192 196 204 203 200 195 197 196
257 282 260 248 265 256 278 300 270 266 264 270 249 252 267 271 288 330 353 347 338 325 309 295 272 250 230 211 205 204 200 200 195 192 195 200 205 205 201 199 201 200 195 195
286 273 277 289 308 265 275 274 256 243 243 251 239 235 264 261 292 328 346 351 348 344 336 322 307 288 237 210 205 205 199 199 198 198 202 206 207 201 197 204 204 207 200 196
290 235 316 311 286 205 280 270 262 240 230 242 209 238 250 320 347 333 337 345 350 354 356 349 337 315 283 230 212 206 201 202 204 207 210 213 214 209 207 209 211 210 208 205
291 268 224 321 280 261 251 249 250 259 262 270 248 241 234 352 359 349 346 349 354 360 360 356 340 308 290 257 227 213 209 210 210 213 217 217 217 217 217 214 215 215 216 217
286 280 345 315 312 257 227 236 283 273 275 269 249 241 250 328 1 5 4 4 0 356 352 350 346 330 306 277 250 233 221 217 217 218 218 218 216 217 218 217 216 216 217 217
285 280 287 315 259 247 282 240 216 237 256 261 259 247 240 243 333 358 2 357 351 348 348 347 346 341 327 298 269 246 237 230 226 222 221 221 220 217 216 217 214 212 214 212
276 267 278 267 235 249 223 216 236 247 256 261 267 258 288 250 300 330 341 343 342 339 340 341 345 344 345 337 295 254 243 244 237 228 224 220 221 219 217 219 220 217 216 213
269 266 271 271 287 294 242 236 223 247 252 251 267 269 72 256 316 326 329 335 337 336 338 341 345 347 348 347 339 286 256 250 248 240 231 225 220 216 216 220 223 220 220 220
277 254 283 275 214 197 244 240 241 259 266 252 253 258 120 343 324 327 326 330 334 335 339 341 345 347 345 340 339 327 288 267 258 247 237 231 226 220 220 225 228 222 222 223
272 246 249 266 289 286 274 264 252 246 252 257 253 267 279 301 312 317 321 325 326 329 334 336 338 340 340 336 334 329 318 295 270 248 238 236 235 231 228 228 229 227 225 225
267 261 261 269 277 275 272 269 258 248 251 259 268 274 283 297 306 310 316 322 322 324 328 330 330 331 332 332 330 326 323 307 284 258 246 246 245 238 231 228 229 230 230 231
272 265 277 276 272 274 273 270 264 258 257 256 266 274 290 300 306 309 316 319 316 318 321 323 323 322 323 324 324 321 319 313 290 268 255 252 248 241 237 235 234 233 234 235
246 248 266 275 291 288 267 264 256 256 259 257 262 276 304 310 312 311 312 310 310 315 317 316 313 311 313 314 317 315 311 308 297 279 267 254 247 245 246 246 242 238 236 236
233 243 252 276 285 256 271 12 275 259 266 266 274 295 309 311 311 307 307 309 314 316 314 311 310 311 311 312 315 315 305 303 302 291 285 274 254 249 248 244 245 245 241 238
222 231 247 252 264 273 273 316 306 273 278 288 294 304 314 317 307 296 318 319 312 310 308 307 307 307 307 310 316 312 306 304 298 291 287 280 271 258 249 245 246 248 244 241
215 228 244 249 258 266 302 355 331 292 271 343 323 315 320 323 303 307 330 321 315 314 312 311 310 308 307 311 314 310 307 305 301 294 287 281 270 263 252 247 247 249 246 241
241 233 236 249 254 266 322 349 338 274 309 333 318 312 312 300 292 303 310 311 312 312 311 310 308 305 304 309 311 306 304 304 306 302 291 284 275 267 256 250 245 243 243 240
229 236 233 240 245 258 9 350 291 300 319 315 313 309 305 299 300 301 304 306 308 310 310 310 308 306 309 310 308 302 300 305 307 303 292 287 280 275 260 247 243 240 235 232
224 229 248 236 254 300 305 295 303 314 309 311 310 308 305 300 299 301 303 303 304 305 305 305 303 304 306 305 301 297 298 304 305 299 293 289 285 277 263 245 236 235 233 229
243 242 248 260 265 287 294 298 311 315 309 307 306 305 304 298 298 300 300 300 301 301 302 302 300 299 302 304 300 296 296 299 298 293 295 290 285 279 270 252 237 232 230 230
262 240 252 264 281 299 285 296 309 312 310 309 309 307 304 302 298 298 298 298 298 299 300 299 296 294 296 301 299 300 296 296 297 295 293 290 281 274 267 260 249 242 240 235
241 243 254 269 282 282 291 302 306 306 307 311 312 311 308 302 299 298 297 298 297 297 298 296 294 293 294 296 296 298 293 291 290 291 290 287 282 277 269 266 275 267 253 251
Height
1518 1517 1514 1515 1516 1516 1515 1513 1510 1510 1513 1513 1507 1502 1500 1502 1501 1500 1499 1498 1498 1497 1497 1497 1497 1497 1498 1499 1500 1501 1503 1504 1506 1507 1508 1509 1510 1511 1512 1513 1514 1514 1515 1515
1518 1516 1518 1519 1519 1518 1516 1513 1509 1509 1513 1511 1505 1500 1497 1497 1497 1497 1496 1495 1495 1494 1493 1493 1493 1493 1494 1495 1497 1498 1500 1501 1502 1504 1505 1506 1507 1508 1510 1510 1511 1512 1512 1513
1516 1519 1519 1519 1518 1517 1514 1512 1510 1511 1511 1510 1506 1493 1490 1492 1494 1494 1494 1493 1493 1492 1491 1490 1490 1490 1491 1492 1493 1495 1496 1498 1499 1501 1502 1503 1505 1506 1507 1508 1508 1509 1510 1510
1518 1520 1520 1518 1517 1516 1511 1513 1514 1513 1510 1502 1505 1495 1484 1488 1490 1491 1491 1491 1490 1489 1489 1488 1487 1487 1488 1489 1490 1492 1493 1495 1496 1498 1499 1500 1501 1502 1503 1505 1505 1506 1507 1508
1517 1520 1519 1517 1517 1517 1513 1516 1514 1512 1508 1505 1501 1499 1484 1486 1487 1488 1490 1490 1488 1487 1486 1485 1485 1485 1486 1487 1487 1489 1490 1492 1493 1494 1496 1497 1498 1499 1500 1501 1502 1503 1504 1504
1520 1521 1520 1518 1518 1518 1517 1515 1511 1509 1506 1503 1496 1495 1483 1484 1487 1488 1489 1489 1488 1486 1485 1484 1483 1483 1484 1484 1485 1486 1487 1488 1490 1491 1493 1494 1495 1496 1497 1498 1499 1500 1501 1501
1518 1519 1520 1519 1517 1517 1516 1511 1506 1503 1500 1492 1497 1495 1487 1487 1490 1490 1490 1489 1487 1485 1484 1482 1481 1481 1481 1482 1483 1483 1484 1485 1487 1488 1489 1490 1492 1493 1494 1495 1495 1496 1497 1498
1518 1515 1518 1519 1518 1516 1514 1512 1508 1504 1494 1488 1495 1491 1486 1491 1492 1491 1490 1489 1487 1485 1483 1481 1480 1479 1479 1480 1480 1481 1481 1482 1483 1484 1486 1487 1488 1489 1490 1491 1492 1493 1494 1494
1520 1516 1520 1520 1520 1518 1514 1512 1512 1509 1503 1499 1485 1486 1489 1489 1490 1490 1489 1488 1486 1484 1482 1481 1479 1478 1478 1478 1478 1478 1479 1479 1480 1481 1482 1484 1485 1485 1487 1488 1488 1489 1490 1491
1525 1521 1519 1520 1519 1518 1517 1513 1513 1510 1505 1494 1481 1483 1482 1487 1489 1489 1489 1487 1486 1484 1482 1480 1479 1477 1476 1476 1476 1476 1476 1477 1477 1478 1479 1480 1481 1482 1483 1484 1485 1486 1486 1487
1527 1523 1519 1518 1516 1513 1517 1516 1512 1507 1504 1497 1485 1481 1487 1487 1489 1490 1489 1488 1486 1484 1482 1480 1478 1476 1475 1474 1473 1473 1473 1474 1475 1475 1476 1476 1477 1478 1479 1480 1481 1482 1483 1483
1527 1524 1517 1514 1515 1516 1513 1511 1511 1510 1504 1501 1493 1488 1489 1490 1490 1490 1489 1487 1486 1484 1482 1479 1477 1475 1473 1472 1471 1471 1471 1471 1471 1472 1472 1473 1474 1475 1475 1476 1477 1478 1479 1479
1528 1525 1519 1510 1515 1516 1514 1513 1513 1511 1508 1500 1495 1488 1489 1490 1489 1489 1488 1486 1485 1483 1480 1478 1476 1474 1472 1470 1469 1468 1468 1468 1468 1469 1469 1470 1470 1471 1472 1472 1473 1474 1475 1475
1527 1522 1519 1512 1505 1509 1511 1510 1511 1511 1506 1496 1490 1485 1486 1488 1488 1488 1487 1485 1483 1481 1479 1477 1475 1473 1471 1469 1467 1466 1465 1465 1465 1466 1466 1466 1467 1467 1468 1469 1469 1470 1471 1471
1526 1521 1516 1512 1510 1510 1508 1505 1505 1505 1500 1496 1486 1485 1485 1487 1488 1487 1485 1484 1481 1479 1477 1475 1473 1471 1469 1467 1465 1464 1463 1462 1462 1462 1463 1463 1463 1464 1464 1465 1465 1466 1467 1467
1525 1521 1518 1514 1509 1507 1505 1501 1501 1499 1497 1493 1489 1486 1487 1488 1487 1485 1484 1482 1479 1477 1475 1473 1471 1469 1467 1465 1463 1461 1460 1459 1459 1459 1459 1459 1459 1460 1460 1461 1462 1462 1463 1463
1524 1522 1518 1509 1507 1505 1499 1496 1496 1496 1493 1492 1488 1487 1487 1486 1485 1484 1482 1480 1478 1475 1473 1471 1468 1466 1464 1462 1460 1458 1457 1456 1456 1456 1456 1456 1456 1456 1456 1457 1458 1458 1458 1459
1522 1520 1517 1511 1509 1505 1494 1496 1494 1493 1492 1492 1490 1489 1488 1486 1484 1482 1480 1478 1475 1473 1470 1467 1465 1463 1461 1459 1457 1456 1454 1453 1453 1452 1452 1452 1452 1452 1453 1453 1453 1454 1454 1455
1519 1518 1515 1511 1503 1493 1493 1495 1495 1493 1489 1490 1489 1487 1486 1484 1481 1477 1477 1475 1474 1471 1468 1465 1462 1460 1457 1456 1454 1453 1451 1450 1450 1449 1449 1449 1449 1449 1449 1449 1449 1449 1450 1450
1518 1517 1514 1509 1504 1494 1491 1496 1494 1493 1488 1489 1488 1487 1485 1483 1478 1474 1474 1472 1470 1467 1464 1461 1459 1456 1454 1452 1451 1449 1448 1447 1446 1446 1445 1445 1445 1445 1444 1445 1445 1445 1446 1446
1514 1513 1511 1506 1502 1492 1494 1495 1494 1493 1489 1489 1488 1486 1484 1482 1480 1476 1472 1469 1466 1463 1461 1458 1455 1452 1450 1449 1447 1446 1445 1444 1443 1442 1442 1441 1441 1441 1440 1440 1441 1441 1441 1442
1509 1507 1506 1504 1501 1495 1494 1495 1494 1492 1490 1488 1486 1484 1482 1479 1475 1472 1468 1465 1462 1459 1456 1454 1451 1448 1447 1445 1444 1442 1441 1440 1439 1439 1438 1437 1437 1436 1436 1436 1436 1437 1437 1437
1507 1505 1501 1501 1497 1494 1494 1494 1493 1491 1489 1486 1484 1481 1478 1474 1471 1468 1464 1461 1458 1455 1452 1450 1447 1445 1443 1442 1441 1439 1438 1436 1435 1435 1434 1433 1433 1432 1432 1432 1432 1432 1433 1433
1503 1504 1502 1498 1493 1494 1493 1491 1490 1488 1486 1483 1480 1477 1474 1470 1467 1463 1460 1457 1454 1451 1448 1446 1443 1441 1439 1438 1437 1435 1434 1432 1431 1430 1430 1429 1428 1428 1428 1428 1428 1428 1428 1428
1500 1501 1499 1495 1493 1492 1490 1489 1487 1484 1482 1479 1476 1473 1469 1466 1462 1459 1455 1452 1450 1447 1444 1442 1440 1437 1435 1434 1432 1431 1430 1429 1427 1427 1426 1425 1425 1424 1424 1423 1424 1424 1424 1424
1499 1499 1497 1492 1491 1491 1487 1485 1483 1480 1477 1474 1471 1467 1464 1461 1458 1454 1451 1448 1445 1442 1440 1437 1435 1433 1431 1430 1429 1428 1427 1425 1424 1423 1422 1421 1420 1420 1420 1419 1419 1419 1420 1420